OE3UKW Weather Reports


Display with metric or nautical units.
time (UTC)temp
F
wind
direction
speed
MPH
gust
MPH
rain 1hr
in
rain 24hr
in
rain mn
in
humidity
%
barometer
mb
20260904060111 71 232 5.0 9.0 0.00 0.00 0.00 51 1020.6
20260904055111 71 251 8.0 12.0 0.00 0.00 0.00 51 1020.4
20260904054111 71 248 8.0 12.0 0.00 0.00 0.00 51 1020.4
20260904053111 71 239 8.0 13.0 0.00 0.00 0.00 52 1020.1
20260904052111 69 241 8.0 12.0 0.00 0.00 0.00 54 1020.3
20260904051110 69 240 7.0 13.0 0.00 0.00 0.00 54 1020.2
20260904050110 69 246 6.0 13.0 0.00 0.00 0.00 54 1020.3
20260904045111 69 240 8.0 11.0 0.00 0.00 0.00 54 1020.3
20260904044111 69 268 8.0 12.0 0.00 0.00 0.00 53 1020.2
20260904043111 69 246 8.0 10.0 0.00 0.00 0.00 53 1020.3
20260904042110 69 250 7.0 13.0 0.00 0.00 0.00 53 1020.4
20260904041111 69 231 7.0 12.0 0.00 0.00 0.00 53 1020.3
20260904040110 69 241 10.0 13.0 0.00 0.00 0.00 53 1020.4
20260904035110 69 245 6.0 12.0 0.00 0.00 0.00 54 1020.4
20260904034110 69 248 9.0 12.0 0.00 0.00 0.00 54 1020.2
20260904033110 69 242 7.0 11.0 0.00 0.00 0.00 54 1020.3
20260904032110 69 236 8.0 11.0 0.00 0.00 0.00 54 1020.3
20260904031110 68 250 8.0 11.0 0.00 0.00 0.00 55 1020.2
20260904030110 68 265 6.0 11.0 0.00 0.00 0.00 55 1020.3
20260904025110 68 239 5.0 10.0 0.00 0.00 0.00 56 1020.2
20260904024111 68 250 2.0 8.0 0.00 0.00 0.00 56 1020.4
20260904023110 67 272 2.0 4.0 0.00 0.00 0.00 56 1020.5
20260904022110 67 224 2.0 4.0 0.00 0.00 0.00 56 1020.3
20260904021110 68 223 3.0 5.0 0.00 0.00 0.00 55 1020.4
20260904020110 68 244 2.0 7.0 0.00 0.00 0.00 55 1020.2
20260904015110 68 237 3.0 8.0 0.00 0.00 0.00 55 1020.5
20260904014110 68 240 3.0 9.0 0.00 0.00 0.00 54 1020.6
20260904013110 68 231 5.0 10.0 0.00 0.00 0.00 54 1020.4
20260904012110 68 239 8.0 11.0 0.00 0.00 0.00 54 1020.4
20260904011110 68 233 6.0 9.0 0.00 0.00 0.00 54 1020.7
20260904005110 68 251 5.0 10.0 0.00 0.00 0.00 54 1020.8
20260904004110 68 248 5.0 9.0 0.00 0.00 0.00 54 1020.9
20260904003110 68 318 1.0 3.0 0.00 0.00 0.00 54 1021.0
20260904002110 68 236 2.0 4.0 0.00 0.00 0.00 54 1021.1
20260904001110 68 234 5.0 7.0 0.00 0.00 0.00 54 1021.0
20260904000110 67 246 3.0 9.0 0.00 0.00 0.00 54 1021.1
20260903235110 67 250 5.0 8.0 0.00 0.00 0.00 54 1021.1
20260903234110 67 242 4.0 7.0 0.00 0.00 0.00 54 1021.2
20260903233110 67 242 4.0 6.0 0.00 0.00 0.00 54 1021.2
20260903232110 67 272 4.0 8.0 0.00 0.00 0.00 53 1021.2
20260903231110 67 244 5.0 7.0 0.00 0.00 0.00 53 1021.4
20260903230110 67 245 4.0 8.0 0.00 0.00 0.00 51 1021.4
20260903225110 67 248 3.0 8.0 0.00 0.00 0.00 49 1021.2
20260903224110 68 275 2.0 4.0 0.00 0.00 0.00 48 1021.4
20260903223110 69 286 0.0 0.0 0.00 0.00 0.00 46 1021.4
20260903222110 69 286 2.0 3.0 0.00 0.00 0.00 46 1021.3
20260903221110 69 290 3.0 6.0 0.00 0.00 0.00 46 1021.4
20260903220110 69 286 3.0 8.0 0.00 0.00 0.00 46 1021.2
20260903215114 69 306 4.0 11.0 0.00 0.00 0.00 46 1021.5
20260903214113 69 296 8.0 11.0 0.00 0.00 0.00 45 1021.6
20260903213113 69 307 7.0 10.0 0.00 0.00 0.00 45 1021.3
20260903212114 69 283 2.0 5.0 0.00 0.00 0.00 44 1021.2
20260903211113 70 279 3.0 4.0 0.00 0.00 0.00 44 1021.3
20260903210113 70 272 5.0 8.0 0.00 0.00 0.00 43 1021.2
20260903205113 71 282 5.0 10.0 0.00 0.00 0.00 42 1021.2
20260903204113 71 300 3.0 4.0 0.00 0.00 0.00 41 1021.1
20260903203113 72 302 3.0 5.0 0.00 0.00 0.00 40 1020.9
20260903202113 72 327 0.0 0.0 0.00 0.00 0.00 39 1020.9
20260903201113 73 327 0.0 3.0 0.00 0.00 0.00 39 1020.9
20260903200113 73 327 2.0 3.0 0.00 0.00 0.00 38 1020.8
20260903195113 73 329 2.0 5.0 0.00 0.00 0.00 38 1020.8
20260903194113 74 308 2.0 3.0 0.00 0.00 0.00 38 1020.6
20260903193113 74 320 3.0 5.0 0.00 0.00 0.00 38 1020.5
20260903192113 74 300 3.0 3.0 0.00 0.00 0.00 37 1020.4
20260903191113 75 296 2.0 4.0 0.00 0.00 0.00 37 1020.3
20260903190113 75 284 4.0 7.0 0.00 0.00 0.00 37 1020.1
20260903185113 76 290 3.0 7.0 0.00 0.00 0.00 36 1020.1
20260903184113 76 290 4.0 11.0 0.00 0.00 0.00 36 1020.1
20260903183113 76 302 6.0 14.0 0.00 0.00 0.00 36 1019.9
20260903182113 76 275 6.0 10.0 0.00 0.00 0.00 36 1019.7
20260903181113 76 260 10.0 12.0 0.00 0.00 0.00 36 1019.6
20260903180113 76 271 5.0 9.0 0.00 0.00 0.00 36 1019.4
20260903175113 77 277 5.0 9.0 0.00 0.00 0.00 35 1019.4
20260903174113 77 279 3.0 10.0 0.00 0.00 0.00 35 1019.3
20260903173113 77 275 6.0 9.0 0.00 0.00 0.00 34 1019.3
20260903172112 78 278 5.0 8.0 0.00 0.00 0.00 33 1019.4
20260903171113 78 263 4.0 9.0 0.00 0.00 0.00 32 1019.2
20260903170112 78 306 9.0 13.0 0.00 0.00 0.00 32 1019.2
20260903165113 79 266 10.0 12.0 0.00 0.00 0.00 32 1019.2
20260903164113 79 263 8.0 12.0 0.00 0.00 0.00 31 1019.1
20260903163112 79 281 4.0 12.0 0.00 0.00 0.00 31 1019.1
20260903162113 80 249 7.0 12.0 0.00 0.00 0.00 31 1019.1
20260903161112 80 281 9.0 14.0 0.00 0.00 0.00 30 1018.9
20260903160113 80 275 7.0 13.0 0.00 0.00 0.00 29 1018.9
20260903155112 81 269 7.0 14.0 0.00 0.00 0.00 29 1018.9
20260903154112 81 282 7.0 16.0 0.00 0.00 0.00 28 1018.9
20260903153112 82 286 9.0 16.0 0.00 0.00 0.00 28 1018.9
20260903152112 82 252 12.0 17.0 0.00 0.00 0.00 27 1019.1
20260903151112 82 285 7.0 15.0 0.00 0.00 0.00 28 1019.2
20260903150112 82 249 12.0 18.0 0.00 0.00 0.00 27 1019.2
20260903145112 83 252 7.0 17.0 0.00 0.00 0.00 26 1019.0
20260903144112 83 302 12.0 19.0 0.00 0.00 0.00 26 1019.2
20260903143112 83 245 10.0 15.0 0.00 0.00 0.00 28 1019.2
20260903142112 83 303 11.0 14.0 0.00 0.00 0.00 28 1019.3
20260903141112 82 305 8.0 17.0 0.00 0.00 0.00 29 1019.2
20260903140112 83 278 12.0 18.0 0.00 0.00 0.00 28 1019.3
20260903135112 84 269 9.0 21.0 0.00 0.00 0.00 26 1019.3
20260903134112 85 263 7.0 18.0 0.00 0.00 0.00 25 1019.5
20260903133112 84 259 3.0 10.0 0.00 0.00 0.00 26 1019.4
20260903132112 82 285 11.0 16.0 0.00 0.00 0.00 28 1019.4
20260903131112 82 240 4.0 10.0 0.00 0.00 0.00 30 1019.5
20260903130112 82 258 11.0 22.0 0.00 0.00 0.00 30 1019.7
20260903125112 82 251 10.0 17.0 0.00 0.00 0.00 30 1019.9
20260903124112 81 281 6.0 11.0 0.00 0.00 0.00 31 1020.0
20260903123112 82 267 5.0 12.0 0.00 0.00 0.00 32 1020.0
20260903122112 82 234 9.0 16.0 0.00 0.00 0.00 32 1020.0
20260903121112 82 256 8.0 12.0 0.00 0.00 0.00 33 1020.3
20260903120112 82 243 8.0 16.0 0.00 0.00 0.00 31 1020.3
20260903115112 82 244 11.0 14.0 0.00 0.00 0.00 31 1020.4
20260903114111 81 216 6.0 14.0 0.00 0.00 0.00 32 1020.4
20260903113112 80 237 10.0 16.0 0.00 0.00 0.00 35 1020.5
20260903112111 80 271 7.0 12.0 0.00 0.00 0.00 32 1020.7
20260903111111 80 327 7.0 10.0 0.00 0.00 0.00 30 1020.6
20260903110111 80 345 5.0 9.0 0.00 0.00 0.00 31 1020.6
20260903105111 80 341 10.0 14.0 0.00 0.00 0.00 30 1020.8
20260903104111 80 294 11.0 17.0 0.00 0.00 0.00 31 1020.9
20260903103111 80 278 5.0 16.0 0.00 0.00 0.00 31 1021.2
20260903102111 80 329 7.0 16.0 0.00 0.00 0.00 30 1021.2
20260903101111 80 313 9.0 16.0 0.00 0.00 0.00 33 1021.3
20260903100111 80 337 9.0 17.0 0.00 0.00 0.00 32 1021.3
20260903095111 80 349 8.0 14.0 0.00 0.00 0.00 33 1021.4
20260903094111 79 305 8.0 15.0 0.00 0.00 0.00 35 1021.4
20260903093111 79 317 10.0 13.0 0.00 0.00 0.00 36 1021.5
20260903092111 79 261 2.0 9.0 0.00 0.00 0.00 36 1021.6
20260903091111 80 298 6.0 12.0 0.00 0.00 0.00 37 1021.7
20260903090111 80 282 8.0 14.0 0.00 0.00 0.00 37 1021.9
20260903085111 80 271 10.0 13.0 0.00 0.00 0.00 37 1021.9
20260903084111 79 309 8.0 13.0 0.00 0.00 0.00 37 1021.8
20260903083111 79 298 8.0 13.0 0.00 0.00 0.00 40 1021.9
20260903082111 78 268 7.0 12.0 0.00 0.00 0.00 41 1021.9
20260903081111 77 275 11.0 15.0 0.00 0.00 0.00 43 1021.8
20260903080111 76 244 11.0 14.0 0.00 0.00 0.00 45 1021.9
20260903075111 74 281 6.0 13.0 0.00 0.00 0.00 47 1021.6
20260903074111 72 278 6.0 16.0 0.00 0.00 0.00 49 1021.6
20260903073111 70 231 7.0 12.0 0.00 0.00 0.00 54 1021.6
20260903072111 68 343 1.0 4.0 0.00 0.00 0.00 54 1021.8
20260903071111 66 360 1.0 4.0 0.00 0.00 0.00 56 1021.7
20260903070111 65 355 0.0 3.0 0.00 0.00 0.00 59 1021.6
20260903065111 64 129 1.0 3.0 0.00 0.00 0.00 59 1021.8
20260903064111 63 151 1.0 2.0 0.00 0.00 0.00 60 1021.7
20260903063111 62 184 1.0 2.0 0.00 0.00 0.00 62 1021.8
20260903062111 61 134 0.0 0.0 0.00 0.00 0.00 64 1021.8
20260903061111 60 142 0.0 1.0 0.00 0.00 0.00 65 1021.8